Dr. Bill's Marine Weather

Coastal Marine Forecast

       Alabama   Florida   Louisiana   Mississippi

Printer Friendly AL  FL  LA  MS

Data Buoys:   Western Gulf of Mexico    Eastern Gulf of Mexico
**********************************************************************
  Alabama
900 PM CDT THU AUG 17 2017

ALZ051>064-180300-
SOUTHWEST ALABAMA
  
CITY           SKY/WX    TMP DP  RH WIND       PRES   REMARKS
MOBILE         CLEAR     81  76  84 S7        30.03R                  
BROOKLEY FIELD CLEAR     84  77  79 SW5       30.03R HX  94           
EVERGREEN      CLEAR     79  76  90 CALM      30.02S                  
**********************************************************************
  Florida
1000 PM EDT THU AUG 17 2017

FLZ001>010-012>015-112-114-115-180300-
PANHANDLE FLORIDA
  
CITY           SKY/WX    TMP DP  RH WIND       PRES   REMARKS
PENSACOLA      CLEAR     87  76  69 SW7       30.03R HX  97           
PENSACOLA NAS  PTCLDY    84  77  79 SW5       30.02S                  
MILTON NAS     PTCLDY    83  77  82 W7        30.02                   
CRESTVIEW      CLEAR     80  77  90 CALM      30.04S                  
DUKE FIELD     PTCLDY    81  77  86 S6        30.03R                  
VALPARAISO     PTCLDY    85  77  77 W5        30.02R HX  95           
MARY ESTHER    CLEAR     86  75  70 SW3       30.01S                  
PANAMA CITY    FAIR      82  77  84 CALM      30.02R                  
TYNDALL AFB    CLEAR     85  78  77 W7        30.04R HX  96           
APALACHICOLA   CLOUDY    83  78  85 W5        30.04R                  

STATION/POSITION SKY/WX   TEMP    WIND        PRES    WAVE   SWELL
                          AIR SEA DIR/SP/G            HT/PER HT/PER
                          (F)     (DEG/KT/KT) (MB)    (FT/S) (FT/S)
30.1N   87.6W              86 87  260/ 10/ 12 1016.5    1/ 4
29.2N   88.2W              87 88  240/  6/  8 1017.4R
28.8N   86.0W              86 88  290/  6/  6 1017.0    1/ 8   2/ 8
PANAMA CITY BEAC           86     280/ 12/ 13 1017.4R
TOWER C                    85                 1017.5R
28.5N   84.5W              85 87  280/  6/  6 1017.0    1

**********************************************************************
  Louisiana
900 PM CDT THU AUG 17 2017

LAZ040-048-061>063-065-066-069-180300-
SOUTHEAST LOUISIANA
  
CITY           SKY/WX    TMP DP  RH WIND       PRES   REMARKS
N.O. INTL ARPT CLEAR     82  77  84 S6        30.01R                  
N.O. LAKEFRONT CLEAR     86  77  74 S9        30.01R HX  97           
N.O. DOWNTOWN* FAIR      87  78  74 S6        30.02R HX 100           
RESERVE*       FAIR      83  76  79 CALM      30.01R                  
SLIDELL        CLEAR     83  77  82 S3        30.00R                  
BATON ROUGE    CLEAR     83  74  74 S3        29.99R                  
BOOTHVILLE     CLEAR     85  77  77 S6        30.03S HX  95           
BELLE CHASSE   PTCLDY    81  80  97 SW5       30.01R                  
BOGALUSA*      FAIR      82  76  79 CALM      30.01S                  
GALLIANO*      CLEAR     82  76  83 S5        30.01S                  
NEW ROADS*     FAIR      80  77  91 CALM      30.01R                  
GONZALES*      FAIR      82  78  88 CALM      30.00R                  
HAMMOND*       PTCLDY    81  73  78 SE3       30.00S                  
HOUMA*         NOT AVBL                                               
PORT FOURCHON* CLEAR     86  75  70 S7        30.03R HX  95           

**********************************************************************
  Mississippi
900 PM CDT THU AUG 17 2017

MSZ080>082-180300-
COASTAL MISSISSIPPI
  
CITY           SKY/WX    TMP DP  RH WIND       PRES   REMARKS
BILOXI         CLEAR     84  79  83 SW8       30.00R HX  96           
PASCAGOULA     CLEAR     82  77  84 S3        30.01S HX  90           
GULFPORT       CLEAR     84  78  82 CALM      30.00R HX  95           
About Us | Coastal Marine Forecast | Offshore Marine Forecast
Gulf Coast Tides | Hourly Weather Observations | Weather Radar
Sea Surface Temperatures | Solar/Lunar Data | Hurricane Advisories | Home
     
USA Logo Dr. Bill's Marine Weather
Last date changed: December 9, 2014 4:08 PM
www.gulfmarineweather.com/hourlyweatherobservations.shtml
Contact Us